Voltar ao catálogo

STARLINK-32153

AtivoComunicaçõesVLEO
NORAD 60330·PAYLOAD·🇺🇸 United States

Lançado Aug 2, 2024 de Cape Canaveral Space Force Station

Loading…

Próximas Passagens (próximas 24 horas)

TLE

AtualizadoSource: CelesTrak SupGP

Época: Sep 14, 2026, 20:45 UTC

1 60330C 24136B   26257.86506944  .00035996  00000+0  10638-2 0  2570
2 60330  53.1576 275.7320 0001173  91.7583 339.9715 15.34363582    10

Acompanhe STARLINK-32153 em tempo real com AllMySat

Download on the App Store